Simultaneous Nadir Overpasses (SNOs) Predictions

Prediction of SNOs between METOP-B and NOAA-19 Satellite Orbit:

Table of predicted SNOs for the next 14.0 days since TLE Epoch: 11/10/2014
Index Date (METOP-B) Time (METOP-B) Lat,Lon (METOP-B) SZA (METOP-B ) Date (NOAA-19) Time (NOAA-19) Lat,Lon (NOAA-19) SZA (NOAA-19 ) Distance(km) Time Diff (sec)
1 11/15/2014 03:06:09 -74.39, -50.68 87.26 11/15/2014 03:04:54 -74.44, -50.81 87.22 6.28 75
2 11/15/2014 03:56:49 74.38, 116.64 92.74 11/15/2014 03:55:53 74.37, 116.62 92.73 1.52 56
3 11/15/2014 04:47:31 -74.38, -76.06 87.26 11/15/2014 04:46:56 -74.38, -76.16 87.26 2.99 35
4 11/15/2014 05:38:11 74.37, 91.25 92.74 11/15/2014 05:37:56 74.36, 91.14 92.74 3.61 15
5 11/15/2014 06:28:54 -74.31,-101.57 87.31 11/15/2014 06:28:58 -74.32,-101.51 87.30 1.78 4
6
